Погода Жангизтобе

Погода Жангизтобе : погода сейчас, прогноз погоды и архив. Всё, что Вы хотите узнать о погоде Жангизтобе!

Хотите узнать прогноз погоды Жангизтобе? Тогда Вам сюда: Погода Жангизтобе

Поиск расширенной информации на нашем сайте:

Другие новости

Новости СМИ2

Главная страница сайта

Новости сайта

03.07.2017

Напоминаем, что на нашем специализированном сайте Метеоцентр.Азия вы можете получить высокодетализированные автоматические прогнозы погоды по пунктам России, СНГ и мира в авиационном формате (включающие направление и скорость ветра, видимость, явления погоды, количество и форму облачности, нижнюю и верхнюю границу облачности).

Рекомендуем: poselki-biznes-klassa купить

Погода Жангизтобе - сегодня

Время (UTC), дата Ветер
(°,м/с) 
Видим.   Явления Облачность Т
(°С)
Тd
(°С)
f(%) Тe
(°С)
Pmin
(гПа)
dP
(гПа)
Po
(мм)
O2
(г/м3)
Тmin Tmax R s Состояние
почвы
15 21.04.18 150 (ЮВ) н/о    3/3 1000 м 
[Sc]
+13.7 -0.2 38 +13  1015  722  277    +17.6       
18 21.04.18 160 (Ю) н/о    6/6 1000 м 
[Sc]
+10.5 -1.9 42 +9  1016.4  0.7  722  280    +17.6       
21 21.04.18 160 (Ю) н/о    8/8 1000 м 
[Sc]
+9.3 +0.3 53 +7  1016  -0.5  722  281           
00 22.04.18 190 (Ю) 20000 м    4/0 средняя, верхняя 
[Ac lent|Ci sp]
+7 +0 61 +6  1016.3  -0.2  722  283           
03 22.04.18 160 (Ю) 13  20000 м    6/4 1000 м средняя 
[Sc|Ac und]
+10 -1.6 44 +7  1016.2  0.5  724  282           
06 22.04.18 160 (Ю) 20000 м    10/10 1000 м 
[Sc]
+16.5 +0 33 +17  1014.4  -0.6  721  274  +6.8         
09 22.04.18 190 (Ю) 20000 м    9/8 1000 м средняя 
[Sc|Ac und]
+19 +0 28 +19  1012.5  -1.3  720  271           
12 22.04.18 190 (Ю) 20000 м    9/9 1000 м 
[Sc]
+20.3 +1.4 28 +20  1012.1  -0.2  720  270           
15 22.04.18 140 (ЮВ) н/о    8/8 1000 м 
[Sc]
+16 +0.9 36 +16  1014.1  1.2  721  274    +21.2       
18 22.04.18 110 (В) 15-19{2}  н/о    9/8 1000 м верхняя 
[Sc|Ci fib]
+13.6 +0 39 +11  1014.7  0.1  721  277    +21.2       
21 22.04.18 110 (В) 15-18{23}  н/о    9/9 1000 м 
[Sc]
+11.7 +0.9 47 +9  1015.1  0.1  721  278           
00 23.04.18 110 (В) 18-22{24}  20000 м    8/8 1000 м 
[Sc]
+8.6 -0.1 54 +5  1016  0.2  722  282           
03 23.04.18 150 (ЮВ) 10{24}  20000 м    8/8 1000 м 
[Cu hum]
+17 +2.2 37 +16  1012.4  -1.8  720  273           
06 23.04.18 160 (Ю) 20000 м    8/3 1000 м средняя, верхняя 
[Cu hum|Ac lent|Ci sp]
+21 +3.3 31 +21  1010.7  -1  719  269  +8.4         
09 23.04.18 240 (ЮЗ) 20000 м    8/8 1000 м кучево-дожд. 
[Cb calv]
+22 +3.8 30 +22  1010.6  0.1  719  268           
12 23.04.18 240 (ЮЗ) 20000 м    9/9 1000 м кучево-дожд. 
[Cb calv]
+17 -0.1 31 +17  1010.7  -0.8  719  273           
15 23.04.18 290 (З) н/о    8/0 средняя 
[Ac lent]
+13.8 +11.2 84 +18  1014.4  3.1  721  274    +22.9       
18 23.04.18 280 (З) н/о  {ливн. осадки}  10/10 1000 м кучево-дожд. 
[Cb calv]
+11.4 +9.3 87 +13  1016.9  1.9  723  278    +22.9       
21 23.04.18 250 (З) н/о  {ливн. осадки}  10/10 1000 м кучево-дожд. 
[Cb calv]
+9.2 +6.7 84 +9  1017.9  0.5  723  281           
00 24.04.18 110 (В) 20000 м  {ливн. осадки}  10/10 1000 м 
[Sc]
+8.3 +5.7 84 +8  1017.8  -0.3  723  282           
03 24.04.18 тихо ()   20000 м  {туман}  8/8 1000 м 
[Sc]
+10.4 +7.5 82 +10  1017  -0.3  723  279           
06 24.04.18 тихо ()   20000 м  {туман}  6/0 средняя, верхняя 
[Ac cast|Ci fib]
+16 +8.3 60 +16  1014.1  -1.7  721  273  +0.7       
09 24.04.18 160 (Ю) 20000 м    8/0 верхняя 
[Ci fib]
+22.5 +7.2 37 +23  1009  -3.8  718  266           
12 24.04.18 140 (ЮВ) 20000 м    8/0 верхняя 
[Ci fib]
+23.4 +9.5 41 +25  1006.5  -2.2  717  264           
15 24.04.18 150 (ЮВ) н/о    10/0 средняя 
[Ac As]
+19.6 +6.8 43 +20  1005.8  -1.3  716  268    +24.1       
Время (UTC), дата Ветер
(°,м/с) 
Видим.   Явления Облачность Т
(°С)
Тd
(°С)
f(%) Тe
(°С)
Pmin
(гПа)
dP
(гПа)
Po
(мм)
O2
(г/м3)
Тmin Tmax R s Состояние
почвы

Для получения пояснительной информации подведите курсор к названию столбца.

ПОГОДА Жангизтобе - архив

Всё, что Вы хотите узнать о погоде Жангизтобе - удобно и подробно!

Выберите нужную дату (начиная с 1 января 2015* года) и нажмите кнопку "Найти".
Будут отображены архивные сводки погоды по пункту Жангизтобе, начиная с указанной даты.


Отображать данные в формате CSV (для использования в таблицах Excel)


Внимание! Наш архив погоды предназначен исключительно для личного некоммерческого использования в познавательных целях. Если Вам необходимы официальные справки о состоянии погоды (для производственных, юридических, коммерческих и т.п. целей), обращайтесь в органы Росгидромета.

*Примечание: данная дата относится к архиву по метеостанциям СССР (Россия, СНГ, Балтия).
Архив по метеостанциям Зарубежной Европы и Азии (кроме Китая) хранится 10 дней, по другим регионам земного шара (Китай, Африка, Америка, Австралия, Океания) - 1 день.

Жангизтобе - район местоположения метеостанции


Название, широта, долгота, высота метеостанции:
Жангизтобе 49.2°ш. 81.2°д. 455 м над ур. моря [Казахстан]

Дополнительная информация

В oтличие oт бoльшинства пoгoдных сайтoв мы публикуем пoдрoбную метеoинфoрмацию в детальнoм прoфессиoнальнoм фoрмате.

Характеристики температуры и влажнoсти вoздуха измеряются на высoте 2 м в тени вдали oт зданий и деревьев.
Скoрoсть ветра измеряется на высoте 10 м (на урoвне рoста челoвека скoрoсть ветра ниже в 1.5-2 раза). Если метеoстанция нахoдится в гoрoде или в лесу, тo скoрoсть ветра занижена на 2-4 м/с пo сравнению с oткрытым местoм. Скoрoсть ветра над акватoриями крупных рек и oзёр, а также на вершинах хoлмoв на 2-5 м/с выше, чем в oбычных услoвиях.
Атмoсфернoе давление в разных тoчках местнoсти мoжет значительнo oтличаться oт давления на метеoстанции, в зависимoсти oт услoвий рельефа (при пoдъёме на 10 м давление пoнижается примернo на 1 мм рт.ст.).